Home   Weather   Bijar   Past weeks

Flag for Iran Past Weather in Bijar, Iran — Yesterday and Last 2 Weeks

46 °F

Scattered clouds.

Feels Like: 46 °F
Forecast: 48 / 55 °F
Wind: No wind

Location: Sanandaj Airport

Current Time: Oct 25, 2016 at 8:39:19 AM

Latest Report: Oct 25, 2016 at 8:00 AM

Visibility: 4 mi

Pressure: 30.18 "Hg (23.88 "Hg at 1927m altitude)

Humidity: 87%

Dew Point: 43 °F

Location of BijarLocation

Past Weather in Bijar — Graph


Bijar Temperature Yesterday

Maximum temperature yesterday: 72 °F (at 1:30 PM)
Minimum temperature yesterday: 34 °F (at 7:00 AM)
Average temperature yesterday: 54 °F

High & Low Weather Summary for the Past Weeks

High82 °F (Oct 10, 1:30 PM)93% (Oct 25, 4:24 AM)30.21 "Hg (Oct 25, 4:24 AM)
Low34 °F (Oct 24, 7:00 AM)7% (Oct 10, 2:30 PM)30.01 "Hg (Oct 10, 4:22 PM)
Average59 °F34%30.11 "Hg
* Reported Oct 10 7:30 AM — Oct 25 7:30 AM, Bijar, Weather by CustomWeather, © 2016

Note: Actual official high and low records may vary slightly from our data, if they occured in-between our weather recording intervals... More about our weather records


Bijar Weather History for the Previous 24 Hours

Scroll right to see more
Time TempWeatherWind HumidityBarometerVisibility
7:30 AM
Tue, Oct 25
45 °FScattered clouds.No wind93%30.18 "Hg4 mi
7:00 AM45 °FFog.No wind87%30.18 "Hg3 mi
6:30 AM45 °FFog.No wind93%30.15 "Hg3 mi
5:20 AM45 °FPassing clouds.2 mph93%30.15 "Hg4 mi
4:24 AM45 °FPassing clouds.2 mph93%30.15 "Hg4 mi
3:23 AM46 °FPassing clouds.2 mph87%30.15 "Hg5 mi
2:20 AM46 °FPassing clouds.2 mph87%30.15 "HgN/A
1:21 AM48 °FPassing clouds.No wind87%30.18 "HgN/A
12:20 AM52 °FPassing clouds.5 mph77%30.15 "HgN/A
11:21 PM
Mon, Oct 24
52 °FPassing clouds.5 mph47%30.18 "HgN/A
10:20 PM54 °FPassing clouds.5 mph67%30.15 "HgN/A
9:23 PM54 °FThunderstorms. Passing clouds.5 mph72%30.15 "HgN/A
8:23 PM55 °FThunderstorms. Passing clouds.7 mph63%30.15 "HgN/A
7:26 PM61 °FThunderstorms. Passing clouds.20 mph42%30.15 "HgN/A
6:24 PM61 °FPassing clouds.7 mph52%30.09 "HgN/A
5:30 PM63 °FScattered clouds.5 mph49%30.09 "HgN/A
4:30 PM72 °FThunderstorms. Scattered clouds.5 mph47%30.07 "HgN/A
3:30 PM72 °FThunderstorms. Scattered clouds.9 mph20%30.07 "HgN/A
3:00 PM72 °FScattered clouds.7 mph20%30.07 "HgN/A
2:30 PM72 °FScattered clouds.12 mph20%30.07 "HgN/A
2:00 PM72 °FScattered clouds.12 mph20%30.09 "HgN/A
1:30 PM72 °FScattered clouds.5 mph17%30.09 "HgN/A
1:00 PM70 °FPassing clouds.2 mph17%30.09 "HgN/A
12:30 PM68 °FPassing clouds.2 mph17%30.12 "HgN/A
12:00 PM66 °FPassing clouds.No wind18%30.15 "HgN/A
11:30 AM64 °FPassing clouds.No wind19%30.15 "HgN/A
11:00 AM63 °FPassing clouds.No wind20%30.18 "HgN/A
10:30 AM59 °FPassing clouds.5 mph23%30.18 "HgN/A
10:00 AM57 °FPassing clouds.2 mph25%30.18 "HgN/A
9:30 AM52 °FSunny.5 mph30%30.18 "Hg10 mi
9:00 AM50 °FSunny.No wind32%30.18 "Hg10 mi
8:30 AM45 °FSunny.No wind39%30.18 "Hg10 mi
8:00 AM41 °FSunny.No wind49%30.18 "Hg10 mi
Weather by CustomWeather, © 2016

See weather overviewHow to use our weather pages